Weather History for KRWI - October, 2010

Change the Weather History Date:

Wednesday, October 20, 2010

  Actual Average Record
Temperature  
Mean Temperature 60 °F -  
Max Temperature 66 °F 69 °F 86 °F (1984)
Min Temperature 53 °F 44 °F 26 °F (1981)
Degree Days  
Heating Degree Days 6    
Growing Degree Days 10 (Base 50)    
Moisture  
Dew Point 57 °F    
Average Humidity 87    
Maximum Humidity 100    
Minimum Humidity 73    
Precipitation  
Precipitation 0.05 in - - ()
Sea Level Pressure  
Sea Level Pressure 29.87 in    
Wind  
Wind Speed 3 mph (North)    
Max Wind Speed 9 mph    
Max Gust Speed -    
Visibility 7 miles    
Events Fog , Rain    
Averages and records for this station are not official NWS values.
T = Trace of Precipitation, MM = Missing Value Source: NWS Daily Summary

Daily Weather History Graph

Daily Weather History Graph

Search for Another Location

Airport or City:

Trip Planner

Search our weather history database for the weather conditions in past years. The results will help you decide how hot, cold, wet, or windy it might be!

Date:

Astronomy

Oct. 20, 2010 Rise Set
Actual Time 7:22 AM EDT 6:29 PM EDT
Civil Twilight 6:56 AM EDT 6:55 PM EDT
Nautical Twilight 6:26 AM EDT 7:25 PM EDT
Astronomical Twilight 5:57 AM EDT 7:54 PM EDT
Moon 5:00 PM EDT (10/20) 5:06 AM EDT (10/20)
Length of Visible Light 11h 58m
Length of Day
11h 06m
Waxing Gibbous, 95% of the Moon is Illuminated
Oct 20
Waxing Gibbous
Oct 22
Full
Oct 30
Last Quarter
Nov 6
New
Nov 13
First Quarter

Hourly Weather History & Observations

Time (EDT) Temp. Dew Point Humidity Pressure Visibility Wind Dir Wind Speed Gust Speed Precip Events Conditions
12:32 AM 59.0 °F 57.2 °F 94% 29.90 in 5.0 mi ENE 3.5 mph - N/A   Scattered Clouds
12:41 AM 59.0 °F 57.2 °F 94% 29.90 in 5.0 mi ENE 4.6 mph - N/A   Mostly Cloudy
12:53 AM 60.1 °F 57.0 °F 90% 29.91 in 5.0 mi Variable 3.5 mph - N/A   Overcast
1:53 AM 60.1 °F 57.0 °F 90% 29.90 in 6.0 mi Calm Calm - N/A   Overcast
2:53 AM 60.1 °F 57.0 °F 90% 29.89 in 7.0 mi ESE 4.6 mph - N/A   Overcast
3:53 AM 60.1 °F 57.0 °F 90% 29.87 in 7.0 mi East 3.5 mph - N/A   Overcast
4:53 AM 60.1 °F 57.0 °F 90% 29.88 in 7.0 mi Calm Calm - N/A   Overcast
5:13 AM 60.8 °F 57.2 °F 88% 29.88 in 7.0 mi Calm Calm - N/A   Overcast
5:53 AM 60.1 °F 57.0 °F 90% 29.87 in 7.0 mi Variable 4.6 mph - N/A   Overcast
6:53 AM 60.1 °F 57.0 °F 90% 29.87 in 7.0 mi ENE 3.5 mph - N/A   Overcast
7:53 AM 60.1 °F 57.0 °F 90% 29.88 in 7.0 mi Calm Calm - N/A   Overcast
8:53 AM 61.0 °F 57.0 °F 87% 29.88 in 6.0 mi NE 4.6 mph - N/A   Overcast
9:53 AM 62.1 °F 57.0 °F 84% 29.89 in 6.0 mi Calm Calm - N/A   Haze
10:24 AM 62.6 °F 55.4 °F 77% 29.87 in 10.0 mi ESE 5.8 mph - N/A   Overcast
10:53 AM 64.0 °F 57.0 °F 78% 29.88 in 10.0 mi Calm Calm - N/A   Mostly Cloudy
11:53 AM 66.0 °F 57.0 °F 73% 29.88 in 10.0 mi Calm Calm - N/A   Overcast
12:12 PM 64.4 °F 55.4 °F 73% 29.87 in 10.0 mi North 4.6 mph - N/A   Mostly Cloudy
12:53 PM 64.9 °F 55.9 °F 73% 29.87 in 10.0 mi NW 8.1 mph - N/A   Overcast
1:53 PM 63.0 °F 55.9 °F 78% 29.86 in 9.0 mi NW 9.2 mph - 0.00 in Rain Light Rain
2:53 PM 61.0 °F 57.0 °F 87% 29.85 in 6.0 mi Calm Calm - 0.03 in Rain Light Rain
3:05 PM 60.8 °F 57.2 °F 88% 29.84 in 6.0 mi Calm Calm - 0.00 in Rain Light Rain
3:17 PM 60.8 °F 57.2 °F 88% 29.83 in 5.0 mi Calm Calm - 0.01 in Rain Light Rain
3:29 PM 60.8 °F 57.2 °F 88% 29.82 in 5.0 mi ENE 3.5 mph - 0.02 in Rain Light Rain
3:53 PM 61.0 °F 57.9 °F 90% 29.82 in 6.0 mi Calm Calm - 0.02 in Rain Light Rain
4:30 PM 62.6 °F 57.2 °F 82% 29.82 in 7.0 mi Calm Calm - 0.00 in   Mostly Cloudy
4:43 PM 62.6 °F 57.2 °F 82% 29.82 in 8.0 mi NW 3.5 mph - 0.00 in   Mostly Cloudy
4:53 PM 63.0 °F 57.9 °F 84% 29.83 in 8.0 mi NW 4.6 mph - 0.00 in   Overcast
5:02 PM 62.6 °F 57.2 °F 82% 29.82 in 8.0 mi West 3.5 mph - N/A   Overcast
5:53 PM 62.1 °F 57.9 °F 86% 29.84 in 7.0 mi Variable 3.5 mph - N/A   Overcast
6:14 PM 62.6 °F 57.2 °F 82% 29.84 in 7.0 mi Calm Calm - N/A   Overcast
6:53 PM 61.0 °F 57.9 °F 90% 29.85 in 7.0 mi Calm Calm - N/A   Overcast
7:53 PM 60.1 °F 57.9 °F 93% 29.87 in 6.0 mi Calm Calm - N/A   Overcast
8:39 PM 60.8 °F 57.2 °F 88% 29.87 in 7.0 mi Calm Calm - N/A   Mostly Cloudy
8:53 PM 60.1 °F 57.9 °F 93% 29.87 in 6.0 mi Calm Calm - N/A   Overcast
9:05 PM 60.8 °F 57.2 °F 88% 29.87 in 5.0 mi Calm Calm - N/A   Overcast
9:53 PM 60.1 °F 57.0 °F 90% 29.88 in 8.0 mi NNW 3.5 mph - N/A   Overcast
10:11 PM 60.8 °F 55.4 °F 82% 29.89 in 8.0 mi NW 5.8 mph - N/A   Overcast
10:30 PM 59.0 °F 55.4 °F 88% 29.89 in 9.0 mi NW 4.6 mph - N/A   Overcast
10:53 PM 59.0 °F 55.9 °F 90% 29.89 in 9.0 mi Calm Calm - N/A   Mostly Cloudy
11:12 PM 57.2 °F 55.4 °F 94% 29.89 in 8.0 mi Calm Calm - N/A   Partly Cloudy
11:33 PM 55.4 °F 53.6 °F 94% 29.89 in 1.8 mi Calm Calm - N/A   Clear
11:42 PM 55.4 °F 53.6 °F 94% 29.89 in 0.2 mi Calm Calm - N/A Fog Fog
11:50 PM 53.6 °F 53.6 °F 100% 29.88 in 0.2 mi Calm Calm - N/A Fog Fog
11:53 PM 53.1 °F 52.0 °F 96% 29.88 in 0.2 mi Calm Calm - N/A Fog Fog